Flag for Algeria Weather past 2 weeks in Constantine, Algeria

Now
88 °F

Sunny.


Feels Like: 85 °F
Forecast: 62 / 101 °F
Wind: 12 mph from North

Location: Constantine Airport

Current Time: Jul 23, 2014 at 5:56:48 PM

Latest Report: Jul 23, 2014 at 5:30 PM


Visibility: 10 mi

Pressure: 29.98 "Hg

Humidity: 27%

Dew point: 50 °F

Location of ConstantineLocation

Historic Weather in Constantine — Graph

°F

Constantine temperature yesterday

Maximum temperature yesterday: 86 °F (at 2:30 PM)
Minimum temperature yesterday: 57 °F (at 5:30 AM)
Average temperature yesterday: 73 °F

Past Weeks' High & Low Weather Summary

 TemperatureHumidityPressure
High106 °F (Jul 20, 12:30 PM)94% (Jul 9, 3:00 AM)30.21 "Hg (Jul 9, 3:00 AM)
Low57 °F (Jul 12, 4:00 AM)10% (Jul 18, 4:00 PM)29.98 "Hg (Jul 9, 4:00 PM)
Average76 °F45%30.10 "Hg
* Reported Jul 8 4:00 PM — Jul 23 4:30 PM, Constantine, Weather by CustomWeather, © 2014

Note: Actual official high and low records may vary slightly from our data, if they occured in-between our weather recording intervals... More about our weather records

Advertising

Constantine weather history for previous 24 hours

 ConditionsComfort  
Time TempWeatherWind HumidityBarometerVisibility
4:30 PM
Jul 23
90 °FSunny.7 mph22%29.98 "Hg10 mi
4:00 PM91 °FSunny.12 mph21%29.98 "Hg10 mi
3:30 PM90 °FSunny.14 mph21%29.98 "Hg10 mi
3:00 PM90 °FSunny.14 mph15%29.98 "Hg10 mi
2:30 PM90 °FSunny.9 mph21%29.98 "Hg10 mi
2:00 PM90 °FSunny.9 mph21%30.01 "Hg10 mi
12:30 PM86 °FSunny.5 mph24%30.01 "Hg10 mi
12:00 PM84 °FSunny.9 mph25%30.01 "Hg10 mi
11:30 AM81 °FSunny.7 mph32%30.04 "Hg10 mi
11:00 AM81 °FSunny.7 mph32%30.04 "Hg10 mi
10:30 AM81 °FSunny.No wind34%30.04 "Hg10 mi
10:00 AM79 °FSunny.No wind37%30.04 "Hg10 mi
9:00 AM75 °FSunny.No wind47%30.04 "Hg10 mi
6:30 AM63 °FSunny.No wind73%30.04 "Hg10 mi
5:30 AM59 °FClear.No wind77%30.04 "Hg10 mi
5:00 AM59 °FClear.No wind77%30.04 "Hg10 mi
4:30 AM59 °FClear.No wind77%30.04 "Hg10 mi
4:00 AM59 °FClear.No wind77%30.04 "Hg10 mi
3:30 AM61 °FClear.No wind72%30.04 "Hg10 mi
3:00 AM61 °FClear.No wind72%30.04 "Hg10 mi
2:30 AM63 °FClear.No wind73%30.04 "Hg10 mi
2:00 AM63 °FClear.No wind73%30.04 "Hg10 mi
1:30 AM63 °FClear.No wind73%30.07 "Hg10 mi
1:00 AM63 °FClear.No wind68%30.07 "Hg10 mi
12:00 AM64 °FClear.No wind64%30.07 "Hg10 mi
6:00 PM
Jul 22
82 °FSunny.15 mph32%30.04 "Hg10 mi
5:30 PM82 °FSunny.12 mph32%30.01 "Hg10 mi
5:00 PM84 °FSunny.13 mph35%30.01 "Hg10 mi
Weather by CustomWeather, © 2014

See weather overviewHow to use our weather pages